TimeEST,TemperatureF,Dew PointF,Humidity,Sea Level PressureIn,VisibilityMPH,Wind Direction,Wind SpeedMPH,Gust SpeedMPH,PrecipitationIn,Events,Conditions,WindDirDegrees,DateUTC
12:52 AM,32.0,30.0,92,29.81,3.0,Variable,3.5,-,0.01,Rain,Light Freezing Rain,0,2012-12-18 05:52:00
1:52 AM,33.1,30.9,92,29.77,3.0,Variable,5.8,-,0.03,Rain,Light Freezing Rain,0,2012-12-18 06:52:00
2:09 AM,33.8,30.2,87,29.72,4.0,NNE,5.8,-,0.01,Rain,Light Rain,30,2012-12-18 07:09:00
2:19 AM,33.8,30.2,87,29.71,4.0,Variable,6.9,-,0.01,Rain,Light Freezing Rain,0,2012-12-18 07:19:00
2:52 AM,33.1,30.9,92,29.74,4.0,Variable,4.6,-,0.03,Rain,Light Freezing Rain,0,2012-12-18 07:52:00
3:08 AM,33.8,30.2,87,29.69,3.0,Variable,3.5,-,0.01,Rain,Light Freezing Rain,0,2012-12-18 08:08:00
3:14 AM,33.8,30.2,87,29.68,3.0,Variable,4.6,-,0.02,Rain,Light Rain,0,2012-12-18 08:14:00
3:24 AM,33.8,30.2,87,29.67,3.0,Variable,4.6,-,0.02,Rain,Light Freezing Rain,0,2012-12-18 08:24:00
3:52 AM,33.1,30.9,92,29.70,3.0,Variable,4.6,-,0.02,Rain,Light Freezing Rain,0,2012-12-18 08:52:00
4:05 AM,33.8,30.2,87,29.64,2.5,Variable,5.8,-,0.01,Rain,Light Freezing Rain,0,2012-12-18 09:05:00
4:52 AM,33.1,30.9,92,29.66,1.8,NE,6.9,-,0.02,Rain,Light Rain,40,2012-12-18 09:52:00
5:03 AM,33.8,30.2,87,29.61,1.8,Variable,3.5,-,0.00,Rain,Light Freezing Rain,0,2012-12-18 10:03:00
5:14 AM,33.8,30.2,87,29.61,2.5,Variable,4.6,-,0.00,Rain,Light Freezing Rain,0,2012-12-18 10:14:00
5:52 AM,34.0,32.0,92,29.64,2.5,Variable,4.6,-,0.03,Rain,Light Freezing Rain,0,2012-12-18 10:52:00
5:57 AM,33.8,32.0,93,29.59,3.0,Variable,3.5,-,0.00,Rain,Light Rain,0,2012-12-18 10:57:00
6:05 AM,33.8,33.8,100,29.59,2.5,NNE,4.6,-,0.00,Rain,Light Freezing Rain,30,2012-12-18 11:05:00
6:35 AM,35.6,33.8,93,29.59,2.5,Calm,Calm,-,0.03,Rain,Light Freezing Rain,0,2012-12-18 11:35:00
6:52 AM,35.1,34.0,96,29.62,2.5,Variable,3.5,-,0.07,Rain,Light Freezing Rain,0,2012-12-18 11:52:00
7:00 AM,35.6,33.8,93,29.54,2.5,Variable,5.8,-,0.02,Rain,Light Freezing Rain,0,2012-12-18 12:00:00
7:12 AM,35.6,33.8,93,29.55,3.0,North,5.8,-,0.04,Rain,Light Freezing Rain,360,2012-12-18 12:12:00
7:17 AM,35.6,33.8,93,29.54,4.0,Variable,4.6,-,0.04,Rain,Light Freezing Rain,0,2012-12-18 12:17:00
7:40 AM,35.6,33.8,93,29.54,6.0,Variable,5.8,-,0.05,,Overcast,0,2012-12-18 12:40:00
7:48 AM,37.4,35.6,93,29.54,5.0,Variable,5.8,-,0.05,,Overcast,0,2012-12-18 12:48:00
7:52 AM,37.0,36.0,96,29.59,4.0,Variable,4.6,-,0.05,,Overcast,0,2012-12-18 12:52:00
8:17 AM,35.6,33.8,93,29.54,2.5,Variable,4.6,-,N/A,,Overcast,0,2012-12-18 13:17:00
8:48 AM,35.6,33.8,93,29.53,1.2,NNE,5.8,-,0.00,,Overcast,20,2012-12-18 13:48:00
8:52 AM,35.1,33.1,92,29.58,1.0,Variable,3.5,-,0.00,,Overcast,0,2012-12-18 13:52:00
9:15 AM,35.6,33.8,93,29.53,1.2,Variable,4.6,-,0.01,Rain,Light Freezing Rain,0,2012-12-18 14:15:00
9:27 AM,35.6,33.8,93,29.53,2.0,Variable,3.5,-,0.02,Rain,Light Freezing Rain,0,2012-12-18 14:27:00
9:39 AM,35.6,33.8,93,29.52,1.8,Variable,4.6,-,0.03,Rain,Light Freezing Rain,0,2012-12-18 14:39:00
9:42 AM,35.6,33.8,93,29.52,2.0,North,4.6,-,0.04,Rain,Light Rain,350,2012-12-18 14:42:00
9:52 AM,35.1,33.1,92,29.56,2.0,Variable,4.6,-,0.04,Rain,Light Freezing Rain,0,2012-12-18 14:52:00
10:03 AM,35.6,33.8,93,29.50,1.8,Variable,6.9,-,0.01,Rain,Light Freezing Rain,0,2012-12-18 15:03:00
10:18 AM,35.6,33.8,93,29.49,2.0,Variable,3.5,-,0.01,Rain,Light Rain,0,2012-12-18 15:18:00
10:25 AM,35.6,33.8,93,29.50,2.0,Variable,3.5,-,0.01,Rain,Light Freezing Rain,0,2012-12-18 15:25:00
10:39 AM,35.6,33.8,93,29.49,1.2,Variable,3.5,-,0.02,Rain,Light Freezing Rain,0,2012-12-18 15:39:00
10:47 AM,35.6,33.8,93,29.49,1.2,NNE,5.8,-,0.03,Rain,Light Rain,30,2012-12-18 15:47:00
10:52 AM,35.1,33.1,92,29.53,1.5,NNE,4.6,-,0.03,Rain,Light Freezing Rain,20,2012-12-18 15:52:00
11:13 AM,35.6,33.8,93,29.47,2.5,North,5.8,-,0.01,Rain,Light Freezing Rain,10,2012-12-18 16:13:00
11:25 AM,35.6,33.8,93,29.47,2.5,Variable,4.6,-,0.01,,Overcast,0,2012-12-18 16:25:00
11:52 AM,36.0,34.0,93,29.50,2.5,North,5.8,-,0.01,Rain,Light Rain,350,2012-12-18 16:52:00
12:07 PM,35.6,33.8,93,29.45,1.8,Calm,Calm,-,0.00,,Overcast,0,2012-12-18 17:07:00
12:32 PM,35.6,35.6,100,29.44,1.2,North,4.6,-,0.00,,Overcast,350,2012-12-18 17:32:00
12:52 PM,37.0,35.1,93,29.46,1.5,North,4.6,-,0.00,,Overcast,360,2012-12-18 17:52:00
1:05 PM,37.4,35.6,93,29.42,2.0,North,4.6,-,N/A,,Overcast,360,2012-12-18 18:05:00
1:17 PM,37.4,35.6,93,29.42,1.8,Variable,3.5,-,N/A,,Overcast,0,2012-12-18 18:17:00
1:34 PM,37.4,35.6,93,29.42,1.2,Calm,Calm,-,N/A,,Overcast,0,2012-12-18 18:34:00
1:52 PM,37.0,35.1,93,29.47,1.2,Calm,Calm,-,N/A,,Overcast,0,2012-12-18 18:52:00
2:16 PM,37.4,35.6,93,29.43,1.5,Calm,Calm,-,N/A,,Overcast,0,2012-12-18 19:16:00
2:27 PM,37.4,35.6,93,29.43,2.0,Calm,Calm,-,N/A,,Overcast,0,2012-12-18 19:27:00
2:35 PM,37.4,35.6,93,29.43,1.8,Calm,Calm,-,N/A,,Overcast,0,2012-12-18 19:35:00
2:52 PM,37.0,35.1,93,29.47,1.2,Calm,Calm,-,N/A,,Overcast,0,2012-12-18 19:52:00
3:05 PM,37.4,35.6,93,29.43,1.5,Calm,Calm,-,N/A,,Overcast,0,2012-12-18 20:05:00
3:11 PM,37.4,35.6,93,29.43,1.0,Calm,Calm,-,N/A,,Overcast,0,2012-12-18 20:11:00
3:20 PM,37.4,35.6,93,29.43,0.8,Calm,Calm,-,N/A,,Overcast,0,2012-12-18 20:20:00
3:52 PM,35.1,34.0,96,29.47,0.5,Calm,Calm,-,N/A,Fog,Fog,0,2012-12-18 20:52:00
4:13 PM,35.6,33.8,93,29.43,0.2,Calm,Calm,-,N/A,Fog,Fog,0,2012-12-18 21:13:00
4:28 PM,35.6,33.8,93,29.42,0.2,Calm,Calm,-,N/A,Fog,Fog,0,2012-12-18 21:28:00
4:52 PM,34.0,34.0,100,29.47,0.5,Calm,Calm,-,N/A,Fog,Fog,0,2012-12-18 21:52:00
5:29 PM,33.8,33.8,100,29.42,0.8,Calm,Calm,-,N/A,,Mist,0,2012-12-18 22:29:00
5:33 PM,33.8,33.8,100,29.42,1.0,Calm,Calm,-,N/A,,Mist,0,2012-12-18 22:33:00
5:39 PM,33.8,33.8,100,29.42,1.2,Calm,Calm,-,N/A,,Overcast,0,2012-12-18 22:39:00
5:49 PM,33.8,33.8,100,29.43,1.0,Calm,Calm,-,N/A,,Overcast,0,2012-12-18 22:49:00
5:52 PM,34.0,33.1,96,29.47,1.0,Calm,Calm,-,N/A,,Overcast,0,2012-12-18 22:52:00
6:08 PM,33.8,33.8,100,29.42,0.8,Calm,Calm,-,N/A,,Overcast,0,2012-12-18 23:08:00
6:29 PM,33.8,33.8,100,29.42,1.2,Calm,Calm,-,0.00,Rain,Light Rain,0,2012-12-18 23:29:00
6:39 PM,33.8,33.8,100,29.42,0.8,Calm,Calm,-,0.00,,Overcast,0,2012-12-18 23:39:00
6:48 PM,33.8,33.8,100,29.42,1.0,Calm,Calm,-,0.00,Rain,Light Rain,0,2012-12-18 23:48:00
6:52 PM,34.0,32.0,92,29.46,1.2,Calm,Calm,-,0.00,Rain,Light Rain,0,2012-12-18 23:52:00
6:57 PM,33.8,32.0,93,29.42,2.0,Calm,Calm,-,0.00,,Overcast,0,2012-12-18 23:57:00
7:09 PM,33.8,33.8,100,29.42,4.0,Calm,Calm,-,0.00,,Overcast,0,2012-12-19 00:09:00
7:40 PM,35.6,33.8,93,29.43,4.0,Calm,Calm,-,0.00,,Overcast,0,2012-12-19 00:40:00
7:52 PM,35.1,34.0,96,29.47,6.0,Calm,Calm,-,0.00,,Overcast,0,2012-12-19 00:52:00
8:18 PM,35.6,33.8,93,29.43,4.0,Calm,Calm,-,N/A,,Overcast,0,2012-12-19 01:18:00
8:31 PM,35.6,33.8,93,29.44,4.0,Calm,Calm,-,N/A,,Overcast,0,2012-12-19 01:31:00
8:37 PM,33.8,33.8,100,29.44,1.8,Calm,Calm,-,N/A,,Overcast,0,2012-12-19 01:37:00
8:56 PM,35.6,33.8,93,29.44,3.0,Calm,Calm,-,N/A,,Overcast,0,2012-12-19 01:56:00
9:52 PM,35.1,33.1,92,29.48,7.0,Calm,Calm,-,N/A,,Overcast,0,2012-12-19 02:52:00
10:29 PM,33.8,33.8,100,29.44,2.5,Calm,Calm,-,N/A,,Overcast,0,2012-12-19 03:29:00
10:38 PM,35.6,33.8,93,29.44,6.0,South,3.5,-,N/A,,Overcast,170,2012-12-19 03:38:00
10:52 PM,35.1,34.0,96,29.48,9.0,Calm,Calm,-,N/A,,Overcast,0,2012-12-19 03:52:00
11:52 PM,37.9,35.1,89,29.47,10.0,Variable,5.8,-,0.01,Rain,Light Rain,0,2012-12-19 04:52:00